1483632000.17,16768,6.88,71788.8,-25.71,-36.31,-36.25,0,*6A
1483632001.42,16769,6.88,71790.8,-25.71,-36.31,-36.31,0,*6E
1483632002.66,16770,6.88,71790.8,-25.73,-36.67,-36.61,0,*62
1483632003.93,16771,6.88,71792.3,-25.71,-36.67,-36.49,0,*6B
1483632005.2,16772,6.88,71832.3,-25.71,-36.67,-36.61,0,*62
1483632006.44,16773,6.88,71832.8,-25.73,-37.03,-36.79,0,*6B
1483632007.69,16774,6.88,71764.5,-25.71,-37.27,-37.03,0,*64
1483632008.99,16775,6.88,71746.3,-25.71,-37.21,-37.09,0,*69
1483632010.21,16776,6.88,71774.5,-25.73,-37.03,-36.85,0,*6D
1483632011.46,16777,6.88,71794.0,-25.77,-37.33,-37.09,0,*6E
1483632012.68,16778,6.88,71776.3,-25.77,-37.45,-37.15,0,*6D
1483632013.93,16779,6.88,71776.8,-25.77,-37.45,-37.09,0,*61
1483632015.16,16780,6.88,71752.3,-25.77,-37.15,-36.73,0,*6E
1483632016.4,16781,6.88,71742.5,-25.77,-36.73,-36.67,0,*6B
1483632017.67,16782,6.88,71748.8,-25.79,-36.91,-36.85,0,*66
1483632018.94,16783,6.88,71774.0,-25.77,-36.91,-36.49,0,*69
1483632020.18,16784,6.88,71788.5,-25.77,-36.73,-36.55,0,*6F
1483632021.45,16785,6.88,71790.0,-25.79,-36.55,-36.37,0,*60
1483632022.73,16786,6.88,71788.8,-25.79,-36.67,-36.13,0,*64
1483632024.01,16787,6.88,71796.0,-25.79,-35.53,-35.23,0,*61
1483632025.31,16788,6.88,71812.3,-25.79,-35.07,-35.35,0,*68
1483632026.55,16789,6.88,71820.0,-25.77,-35.77,-35.89,0,*67
1483632027.81,16790,6.88,71816.5,-25.79,-36.55,-36.67,0,*61
1483632029.07,16791,6.88,71796.0,-25.79,-36.67,-35.89,0,*62
1483632030.32,16792,6.88,71786.8,-25.79,-35.89,-35.77,0,*63
1483632031.6,16793,6.88,71750.5,-25.79,-37.09,-37.15,0,*6E
1483632032.88,16794,6.88,71752.8,-25.79,-37.09,-36.67,0,*6D
1483632034.15,16795,6.88,71794.0,-25.79,-37.09,-36.73,0,*69
1483632035.4,16796,6.88,71774.0,-25.77,-37.33,-36.91,0,*61
1483632036.7,16797,6.88,71708.3,-25.79,-36.91,-36.49,0,*62
1483632037.97,16798,6.88,71726.5,-25.81,-35.95,-35.59,0,*6F
1483632039.24,16799,6.88,71748.0,-25.81,-36.07,-35.95,0,*66
1483632040.49,16800,6.88,71802.0,-25.81,-36.01,-36.19,0,*68
1483632041.76,16801,6.88,71802.3,-25.81,-36.79,-36.55,0,*6E
1483632043.03,16802,6.88,71782.3,-25.81,-36.61,-36.43,0,*63
1483632044.29,16803,6.88,71808.8,-25.81,-36.55,-36.37,0,*66
1483632045.57,16804,6.88,71692.8,-25.81,-36.55,-36.25,0,*62
1483632046.87,16805,6.88,71766.3,-25.81,-36.25,-35.95,0,*6C
1483632048.13,16806,6.88,71714.5,-25.79,-35.77,-35.89,0,*61
1483632049.4,16807,6.88,71788.0,-25.81,-36.37,-36.01,0,*63
1483632050.64,16808,6.88,71800.3,-25.81,-36.19,-36.07,0,*66
1483632051.9,16809,6.88,71802.8,-25.79,-36.01,-36.01,0,*6F
1483632053.16,16810,6.88,71834.8,-25.81,-36.37,-36.07,0,*63
1483632054.42,16811,6.88,71748.5,-25.81,-36.73,-36.55,0,*65
1483632055.69,16812,6.88,71808.0,-25.81,-36.07,-35.83,0,*6D
1483632056.98,16813,6.88,71782.8,-25.81,-36.79,-36.61,0,*6A
1483632058.27,16814,6.88,71756.3,-25.81,-36.61,-36.37,0,*67
1483632059.56,16815,6.88,71834.0,-25.81,-36.61,-36.25,0,*65
1483632060.86,16816,6.88,71758.8,-25.79,-36.49,-36.13,0,*6E
1483632062.13,16817,6.88,71792.5,-25.79,-36.55,-36.13,0,*62
1483632063.41,16818,6.88,71758.8,-25.79,-36.49,-36.19,0,*6A
1483632064.69,16819,6.88,71776.3,-25.79,-36.37,-36.01,0,*6B
1483632065.94,16820,6.88,71786.3,-25.81,-36.07,-36.01,0,*65
1483632067.2,16821,6.88,71788.5,-25.81,-36.37,-36.07,0,*61
1483632068.47,16822,6.88,71804.3,-25.81,-36.43,-36.37,0,*62
1483632069.73,16823,6.88,71822.5,-25.81,-36.61,-36.19,0,*6F
1483632070.97,16824,6.88,71812.0,-25.81,-36.55,-36.19,0,*6F
1483632072.22,16825,6.88,71804.0,-25.81,-36.73,-36.19,0,*6A
1483632073.5,16826,6.88,71818.8,-25.81,-36.79,-36.37,0,*6F
1483632074.78,16827,6.88,71786.3,-25.79,-36.85,-36.37,0,*6A
1483632076.04,16828,6.88,71782.5,-25.79,-37.03,-36.37,0,*6A
1483632077.34,16829,6.88,71798.3,-25.79,-36.91,-36.49,0,*68
1483632078.62,16830,6.88,71788.8,-25.79,-37.03,-36.49,0,*6A
1483632079.9,16831,6.88,71808.5,-25.79,-37.09,-36.55,0,*6C
1483632081.15,16832,6.88,71808.0,-25.79,-37.15,-36.55,0,*62
1483632082.4,16833,6.88,71800.5,-25.79,-37.15,-36.67,0,*62
1483632083.66,16834,6.88,71808.3,-25.79,-37.15,-36.67,0,*65
1483632084.91,16835,6.88,71782.5,-25.79,-37.33,-36.55,0,*61
1483632086.18,16836,6.88,71786.0,-25.81,-37.39,-36.73,0,*6B
1483632087.48,16837,6.88,71790.3,-25.81,-37.21,-36.61,0,*60
1483632088.74,16838,6.88,71778.5,-25.81,-37.33,-36.61,0,*6C
1483632090.02,16839,6.88,71788.3,-25.81,-37.21,-36.43,0,*6E
1483632091.26,16840,6.88,71770.8,-25.81,-37.33,-36.73,0,*60
1483632092.54,16841,6.88,71774.0,-25.81,-37.21,-36.55,0,*66
1483632093.81,16842,6.88,71746.0,-25.81,-37.39,-36.73,0,*68
1483632095.09,16843,6.88,71740.0,-25.81,-37.09,-36.55,0,*6E
1483632096.33,16844,6.88,71746.3,-25.81,-37.15,-36.43,0,*63
1483632097.6,16845,6.88,71750.5,-25.81,-37.21,-36.73,0,*66
1483632098.88,16846,6.88,71748.3,-25.81,-37.21,-36.43,0,*66
1483632100.17,16847,6.88,71736.3,-25.81,-37.21,-36.37,0,*64
1483632101.42,16848,6.88,71776.3,-25.81,-36.97,-36.19,0,*6B
1483632102.69,16849,6.88,71776.0,-25.81,-36.61,-36.01,0,*6A
1483632103.97,16850,6.88,71780.5,-25.81,-36.55,-35.95,0,*6B
1483632105.23,16851,6.88,71762.3,-25.81,-36.79,-36.07,0,*6C
1483632106.48,16852,6.88,71788.5,-25.81,-36.55,-36.01,0,*67
1483632107.76,16853,6.88,71804.3,-25.81,-36.55,-35.95,0,*68
1483632109.04,16854,6.88,71806.8,-25.81,-36.55,-35.95,0,*6F
1483632110.35,16855,6.88,71816.3,-25.79,-36.49,-35.95,0,*64
1483632111.63,16856,6.88,71800.5,-25.79,-36.55,-35.95,0,*6A
1483632112.94,16857,6.88,71796.8,-25.79,-36.49,-35.95,0,*66
1483632114.22,16858,6.88,71816.0,-25.79,-36.55,-35.95,0,*64
1483632115.48,16859,6.88,71810.3,-25.79,-36.67,-36.01,0,*6A
1483632116.75,16860,6.88,71800.5,-25.77,-36.91,-36.13,0,*64
1483632118.01,16861,6.88,71798.5,-25.79,-36.55,-35.89,0,*63
1483632119.32,16862,6.88,71798.0,-25.79,-36.49,-35.95,0,*60
1483632120.59,16863,6.88,71796.0,-25.79,-36.85,-36.13,0,*6C
1483632121.89,16864,6.88,71828.0,-25.79,-36.91,-36.13,0,*6E
1483632123.17,16865,6.88,71822.8,-25.79,-35.89,-35.35,0,*62
1483632124.42,16866,6.88,71824.3,-25.77,-36.55,-36.13,0,*6A
1483632125.72,16867,6.88,71836.5,-25.81,-37.09,-36.25,0,*6F
1483632126.99,16868,6.88,71840.5,-25.79,-37.27,-36.37,0,*68
1483632128.22,16869,6.88,71812.3,-25.77,-37.15,-36.31,0,*60
1483632129.47,16870,6.88,71824.5,-25.77,-37.27,-36.13,0,*69
1483632130.75,16871,6.88,71802.3,-25.79,-37.09,-36.01,0,*69
1483632132.03,16872,6.88,71790.5,-25.79,-36.91,-35.77,0,*68
1483632133.29,16873,6.88,71788.8,-25.79,-36.55,-35.77,0,*61
1483632134.56,16874,6.88,71778.8,-25.79,-36.13,-35.71,0,*62
1483632135.8,16875,6.88,71786.8,-25.79,-36.67,-36.19,0,*6D
1483632137.08,16876,6.88,71802.0,-25.79,-37.63,-36.67,0,*62
1483632138.36,16877,6.88,71792.0,-25.79,-37.81,-36.85,0,*63
1483632139.6,16878,6.88,71734.8,-25.79,-37.87,-36.85,0,*6A
1483632140.9,16879,6.88,71802.8,-25.79,-37.51,-36.49,0,*60
1483632142.2,16880,6.88,71802.8,-25.79,-37.51,-36.49,0,*66
1483632143.48,16881,6.88,71804.8,-25.79,-37.51,-36.67,0,*6B
1483632144.75,16882,6.88,71806.8,-25.81,-37.87,-36.91,0,*6D
1483632145.99,16883,6.88,71772.0,-25.81,-38.05,-36.97,0,*6F
1483632147.28,16884,6.88,71778.5,-25.81,-37.93,-36.91,0,*6E
1483632148.57,16885,6.88,71776.5,-25.81,-37.93,-37.09,0,*6F
1483632149.84,16886,6.88,71742.8,-25.81,-37.87,-36.79,0,*6F
1483632151.11,16887,6.88,71776.0,-25.81,-37.87,-36.91,0,*68
1483632152.38,16888,6.88,71778.8,-25.81,-37.51,-36.73,0,*60
1483632153.62,16889,6.88,71764.3,-25.81,-37.15,-36.43,0,*62
1483632154.92,16890,6.88,71752.8,-25.81,-37.21,-36.37,0,*6E
1483632156.2,16891,6.88,71748.8,-25.81,-37.09,-36.55,0,*61
1483632157.47,16892,6.88,71750.8,-25.81,-37.39,-36.55,0,*61
1483632158.76,16893,6.88,71678.3,-25.81,-37.51,-36.61,0,*69
1483632160.04,16894,6.88,71722.0,-25.81,-37.21,-36.43,0,*69
1483632161.3,16895,6.88,71710.8,-25.81,-37.15,-36.37,0,*6C
1483632162.59,16896,6.88,71732.8,-25.81,-37.51,-36.61,0,*6C
1483632163.82,16897,6.88,71794.8,-25.83,-36.43,-36.01,0,*6B
1483632165.03,16898,6.88,71732.0,-25.83,-37.75,-36.73,0,*65
1483632166.3,16899,6.88,71682.3,-25.83,-37.51,-36.61,0,*61
1483632167.54,16900,6.88,71648.0,-25.83,-36.43,-35.41,0,*63
1483632168.81,16901,6.88,71708.3,-25.83,-34.95,-35.23,0,*6F
1483632170.05,16902,6.88,71722.0,-25.83,-35.95,-35.59,0,*60
1483632171.29,16903,6.88,71714.3,-25.83,-35.65,-35.29,0,*69
1483632172.51,16904,6.88,71686.3,-25.83,-35.59,-35.29,0,*61
1483632173.77,16905,6.88,71752.8,-25.83,-36.37,-35.65,0,*63
1483632174.99,16906,6.88,71760.5,-25.83,-36.19,-35.47,0,*6C
1483632176.22,16907,6.88,71716.3,-25.83,-36.61,-35.59,0,*6D
1483632177.5,16908,6.88,71792.5,-25.81,-35.07,-35.29,0,*64
1483632178.75,16909,6.88,71820.8,-25.81,-36.55,-35.59,0,*66
1483632180.02,16910,6.88,71812.5,-25.81,-36.79,-35.77,0,*6C
1483632181.29,16911,6.88,71768.0,-25.81,-37.51,-36.55,0,*65
1483632182.57,16912,6.88,71722.8,-25.81,-36.79,-35.77,0,*6E
1483632183.86,16913,6.88,71746.3,-25.81,-35.95,-35.41,0,*6B
1483632185.16,16914,6.88,71796.5,-25.81,-36.61,-35.83,0,*6A
1483632186.41,16915,6.88,71778.3,-25.81,-36.55,-35.77,0,*67
1483632187.69,16916,6.88,71786.0,-25.81,-36.19,-35.95,0,*60
1483632188.93,16917,6.88,71770.0,-25.81,-36.73,-36.07,0,*65
1483632190.2,16918,6.88,71806.5,-25.81,-36.37,-35.77,0,*6E
1483632191.47,16919,6.88,71782.3,-25.81,-37.09,-36.07,0,*67
1483632192.75,16920,6.88,71798.3,-25.81,-37.09,-36.01,0,*6B
1483632194.0,16921,6.88,71788.5,-25.81,-36.73,-36.01,0,*66
1483632195.28,16922,6.88,71794.0,-25.81,-37.09,-36.01,0,*69
1483632196.53,16923,6.88,71792.0,-25.81,-36.73,-36.01,0,*64
1483632197.82,16924,6.88,71804.8,-25.81,-37.21,-36.37,0,*60
1483632199.11,16925,6.88,71790.3,-25.81,-37.39,-36.37,0,*68
1483632200.36,16926,6.88,71782.0,-25.81,-37.33,-36.43,0,*62
1483632201.63,16927,6.88,71768.5,-25.81,-37.69,-36.55,0,*6B
1483632202.92,16928,6.88,71784.8,-25.81,-37.39,-36.37,0,*65
1483632204.18,16929,6.88,71822.3,-25.81,-36.79,-36.07,0,*62
1483632205.47,16930,6.81,71804.0,-25.81,-37.51,-36.37,0,*62
1483632206.74,16931,6.81,71808.3,-25.81,-37.69,-36.43,0,*6B
1483632208.0,16932,6.88,71810.5,-25.81,-37.57,-36.37,0,*66
1483632209.3,16933,6.81,71750.0,-25.81,-37.51,-36.25,0,*62
1483632210.57,16934,6.88,71728.5,-25.81,-37.69,-36.43,0,*6E
1483632211.87,16935,6.88,71728.3,-25.81,-37.39,-36.25,0,*6A
1483632213.14,16936,6.88,71774.0,-25.81,-37.33,-36.25,0,*63
1483632214.44,16937,6.81,71828.3,-25.81,-36.91,-35.95,0,*63
1483632215.7,16938,6.88,71826.3,-25.81,-37.57,-36.37,0,*6C
1483632216.97,16939,6.88,71836.5,-25.81,-37.39,-36.43,0,*66
1483632218.23,16940,6.88,71814.8,-25.83,-37.69,-36.37,0,*6C
1483632219.48,16941,6.88,71804.8,-25.81,-37.57,-36.55,0,*66
1483632220.73,16942,6.88,71796.0,-25.81,-37.75,-36.55,0,*65
1483632222.0,16943,6.88,71800.3,-25.81,-37.69,-36.55,0,*69
1483632223.29,16944,6.88,71784.0,-25.81,-37.69,-36.37,0,*6A
1483632224.58,16945,6.88,71784.8,-25.81,-37.51,-36.37,0,*60
1483632225.82,16946,6.81,71782.8,-25.81,-37.75,-36.43,0,*66
1483632227.07,16947,6.88,71764.0,-25.81,-37.75,-36.55,0,*60
1483632228.32,16948,6.88,71774.8,-25.81,-37.75,-36.43,0,*68
1483632229.58,16949,6.88,71732.8,-25.81,-38.05,-36.61,0,*61
1483632230.85,16950,6.88,71768.3,-25.81,-37.39,-36.19,0,*66
1483632232.14,16951,6.88,71760.3,-25.81,-37.09,-35.65,0,*6C
1483632233.38,16952,6.88,71750.3,-25.81,-36.73,-36.07,0,*64
1483632234.66,16953,6.81,71758.5,-25.81,-37.21,-35.77,0,*67
1483632235.95,16954,6.88,71742.0,-25.81,-37.69,-35.65,0,*6F
1483632237.22,16955,6.88,71688.5,-25.83,-35.95,-34.31,0,*6D
1483632238.46,16956,6.88,71724.3,-25.87,-34.95,-33.83,0,*65
1483632239.7,16957,6.88,71732.3,-25.83,-35.41,-35.13,0,*67
1483632240.98,16958,6.88,71764.3,-25.81,-36.55,-35.95,0,*62
1483632242.28,16959,6.88,71780.0,-25.81,-37.21,-35.95,0,*61
1483632243.56,16960,6.88,71758.5,-25.81,-36.91,-35.77,0,*6D
1483632244.83,16961,6.81,71806.3,-25.83,-36.61,-35.83,0,*6A
1483632246.11,16962,6.88,71782.8,-25.83,-37.21,-35.95,0,*6B
1483632247.36,16963,6.88,71806.8,-25.83,-36.91,-35.77,0,*6C
1483632248.66,16964,6.88,71794.3,-25.81,-37.09,-35.95,0,*65
1483632249.93,16965,6.88,71790.5,-25.81,-37.39,-36.07,0,*6F
1483632251.18,16966,6.88,71786.3,-25.83,-37.39,-36.01,0,*68
1483632252.39,16967,6.81,71804.3,-25.83,-37.57,-36.19,0,*68
1483632253.65,16968,6.88,71802.5,-25.81,-37.39,-36.07,0,*62
1483632254.89,16969,6.88,71812.3,-25.81,-37.57,-36.19,0,*64
1483632256.16,16970,6.88,71796.5,-25.81,-37.75,-36.37,0,*60
1483632257.4,16971,6.81,71778.5,-25.81,-38.05,-36.43,0,*6A
1483632258.68,16972,6.88,71776.5,-25.81,-37.87,-36.25,0,*6C
1483632259.92,16973,6.88,71754.0,-25.83,-37.93,-36.43,0,*6A
1483632261.14,16974,6.88,71748.5,-25.83,-37.57,-36.01,0,*63
1483632262.38,16975,6.88,71742.8,-25.83,-36.73,-35.65,0,*64
1483632263.65,16976,6.88,71748.3,-25.83,-37.09,-35.83,0,*63
1483632264.92,16977,6.88,71768.8,-25.81,-37.51,-36.19,0,*6D
1483632266.19,16978,6.88,71778.0,-25.81,-37.51,-36.01,0,*6B
1483632267.47,16979,6.88,71780.0,-25.81,-37.69,-36.01,0,*61
1483632268.75,16980,6.88,71798.3,-25.81,-37.21,-35.77,0,*69
1483632269.99,16981,6.81,71802.8,-25.83,-36.43,-34.53,0,*68
1483632271.21,16982,6.88,71790.5,-25.83,-35.77,-34.13,0,*6B
1483632272.45,16983,6.88,71794.0,-25.83,-34.35,-33.55,0,*68
1483632273.71,16984,6.88,71800.8,-25.87,-35.35,-35.53,0,*6A
1483632274.96,16985,6.81,71786.8,-25.83,-37.51,-36.01,0,*6B
1483632276.21,16986,6.81,71802.3,-25.83,-37.39,-36.01,0,*66
1483632277.42,16987,6.88,71742.5,-25.83,-37.75,-36.19,0,*66
1483632278.64,16988,6.88,71744.3,-25.83,-37.87,-36.19,0,*64
1483632279.88,16989,6.81,71748.5,-25.83,-37.81,-36.19,0,*63
1483632281.14,16990,6.88,71772.3,-25.87,-37.51,-36.01,0,*6B
1483632282.42,16991,6.81,71804.5,-25.87,-37.21,-35.83,0,*64
1483632283.67,16992,6.81,71774.8,-25.87,-37.63,-36.01,0,*68
1483632284.94,16993,6.81,71766.0,-25.83,-37.51,-35.95,0,*62
1483632286.21,16994,6.88,71784.0,-25.83,-37.39,-35.95,0,*6B
1483632287.46,16995,6.88,71772.8,-25.87,-37.63,-36.07,0,*69
1483632288.7,16996,6.88,71810.3,-25.83,-37.69,-36.01,0,*62
1483632289.93,16997,6.81,71766.0,-25.83,-37.57,-35.77,0,*6C
1483632291.2,16998,6.81,71758.5,-25.83,-37.39,-35.83,0,*60
1483632292.44,16999,6.88,71784.5,-25.87,-37.45,-35.83,0,*6E
1483632293.68,17000,6.88,71792.3,-25.87,-37.75,-36.13,0,*6F
1483632294.91,17001,6.88,71776.5,-25.83,-37.75,-36.01,0,*69
1483632296.18,17002,6.88,71794.5,-25.87,-37.81,-36.13,0,*66
1483632297.39,17003,6.88,71816.8,-25.83,-37.75,-36.07,0,*6D
1483632298.65,17004,6.81,71780.8,-25.83,-38.11,-36.37,0,*64
1483632299.87,17005,6.88,71772.5,-25.87,-38.17,-36.31,0,*61
1483632301.12,17006,6.81,71776.5,-25.83,-38.05,-36.25,0,*60
1483632302.33,17007,6.88,71756.0,-25.83,-38.05,-36.19,0,*6E
1483632303.57,17008,6.81,71736.3,-25.83,-38.05,-36.37,0,*6D
1483632304.81,17009,6.81,71776.3,-25.83,-37.93,-36.19,0,*60
1483632306.04,17010,6.81,71780.8,-25.83,-37.93,-36.19,0,*68
1483632307.26,17011,6.81,71768.8,-25.83,-38.05,-36.19,0,*69
1483632308.5,17012,6.81,71766.5,-25.83,-38.05,-36.25,0,*65
1483632309.73,17013,6.88,71748.3,-25.83,-37.87,-36.01,0,*67
1483632310.98,17014,6.81,71742.5,-25.87,-37.99,-36.01,0,*6B
1483632312.23,17015,6.81,71758.3,-25.87,-37.93,-36.01,0,*60
1483632313.49,17016,6.81,71768.8,-25.83,-37.87,-35.95,0,*6C
1483632314.71,17017,6.81,71772.0,-25.87,-37.75,-36.01,0,*6A
1483632315.98,17018,6.81,71748.8,-25.87,-37.99,-36.13,0,*64
1483632317.23,17019,6.88,71758.0,-25.83,-37.87,-35.95,0,*63
1483632318.48,17020,6.88,71742.5,-25.87,-37.99,-36.07,0,*6A
1483632319.72,17021,6.88,71744.5,-25.87,-38.11,-36.07,0,*64
1483632320.97,17022,6.81,71752.3,-25.87,-37.93,-36.01,0,*64
1483632322.22,17023,6.88,71766.3,-25.87,-37.93,-36.01,0,*65
1483632323.46,17024,6.81,71780.5,-25.87,-37.99,-36.07,0,*6E
1483632324.69,17025,6.81,71734.5,-25.87,-38.05,-36.01,0,*63
1483632325.93,17026,6.81,71734.8,-25.87,-37.99,-36.07,0,*6C
1483632327.18,17027,6.88,71772.3,-25.87,-37.93,-36.01,0,*61
1483632328.44,17028,6.88,71786.8,-25.87,-37.93,-35.89,0,*6D
1483632329.66,17029,6.88,71778.5,-25.83,-37.87,-36.01,0,*6E
1483632330.92,17030,6.81,71756.5,-25.87,-37.93,-35.89,0,*64
1483632332.19,17031,6.81,71760.0,-25.87,-38.11,-36.13,0,*60
1483632333.42,17032,6.88,71786.5,-25.83,-38.35,-36.37,0,*67
1483632334.69,17033,6.88,71736.3,-25.83,-38.49,-36.37,0,*6D
1483632335.94,17034,6.88,71702.0,-25.87,-37.93,-36.01,0,*63
1483632337.18,17035,6.81,71668.0,-25.87,-37.75,-35.65,0,*6B
1483632338.42,17036,6.81,71724.0,-25.87,-37.45,-35.65,0,*6B
1483632339.67,17037,6.81,71738.5,-25.87,-37.63,-35.29,0,*66
1483632340.93,17038,6.81,71718.5,-25.87,-36.61,-33.73,0,*63
1483632342.18,17039,6.88,71794.5,-25.87,-34.41,-32.79,0,*69
1483632343.45,17040,6.81,71780.0,-25.87,-33.43,-33.31,0,*6F
1483632344.71,17041,6.81,71744.5,-25.87,-35.35,-34.35,0,*6A
1483632345.93,17042,6.81,71794.5,-25.87,-35.71,-34.71,0,*69
1483632347.18,17043,6.81,71774.3,-25.87,-36.85,-34.95,0,*6A
1483632348.42,17044,6.81,71750.5,-25.83,-36.55,-34.65,0,*6B
1483632349.66,17045,6.81,71762.5,-25.87,-36.43,-34.35,0,*6C
1483632350.92,17046,6.81,71752.3,-25.87,-34.71,-33.27,0,*68
1483632352.16,17047,6.88,71758.0,-25.87,-34.07,-34.19,0,*62
1483632353.38,17048,6.81,71734.5,-25.87,-37.15,-35.71,0,*62
1483632354.64,17049,6.81,71724.0,-25.87,-37.63,-35.65,0,*67
1483632355.9,17050,6.81,71762.3,-25.87,-37.63,-36.01,0,*6E
1483632357.14,17051,6.81,71752.5,-25.83,-37.39,-35.77,0,*66
1483632358.39,17052,6.81,71784.8,-25.87,-37.57,-35.83,0,*62
1483632359.62,17053,6.88,71788.5,-25.87,-37.75,-35.89,0,*69
1483632360.86,17054,6.88,71792.3,-25.87,-37.15,-35.35,0,*6F
1483632362.1,17055,6.81,71800.5,-25.87,-37.15,-35.35,0,*6E
1483632363.38,17056,6.81,71804.5,-25.87,-37.21,-35.53,0,*6A
1483632364.6,17057,6.81,71778.5,-25.87,-37.45,-35.71,0,*69
1483632365.87,17058,6.81,71788.3,-25.87,-37.21,-35.65,0,*61
1483632367.09,17059,6.81,71806.5,-25.87,-37.45,-35.47,0,*62
1483632368.33,17060,6.88,71816.8,-25.87,-37.39,-35.71,0,*66
1483632369.55,17061,6.81,71812.5,-25.87,-37.57,-35.71,0,*6F
1483632370.8,17062,6.81,71796.8,-25.83,-37.21,-35.47,0,*6C
1483632372.02,17063,6.88,71816.3,-25.87,-37.33,-35.47,0,*6A
1483632373.29,17064,6.88,71814.8,-25.87,-37.39,-35.65,0,*67
1483632374.53,17065,6.81,71784.8,-25.87,-37.39,-35.47,0,*66
1483632375.77,17066,6.81,71808.0,-25.87,-37.57,-35.53,0,*68
1483632377.04,17067,6.81,71798.5,-25.87,-37.63,-35.53,0,*6E
1483632378.28,17068,6.81,71794.0,-25.87,-37.45,-35.65,0,*60
1483632379.52,17069,6.81,71780.3,-25.87,-37.57,-35.65,0,*62
1483632380.77,17070,6.81,71814.8,-25.87,-37.75,-35.53,0,*6F
1483632382.02,17071,6.81,71780.8,-25.87,-37.81,-35.71,0,*65
1483632383.26,17072,6.81,71770.8,-25.87,-37.57,-35.65,0,*68
1483632384.5,17073,6.81,71764.3,-25.87,-37.75,-35.65,0,*69
1483632385.71,17074,6.81,71790.5,-25.87,-37.75,-35.71,0,*6B
1483632386.96,17075,6.81,71774.3,-25.87,-37.45,-35.53,0,*69
1483632388.2,17076,6.81,71784.3,-25.87,-37.03,-34.95,0,*63
1483632389.47,17077,6.81,71758.0,-25.87,-36.49,-34.83,0,*6A
1483632390.69,17078,6.81,71772.3,-25.87,-36.85,-35.13,0,*6D
1483632391.93,17079,6.81,71782.5,-25.83,-36.61,-35.17,0,*66
1483632393.15,17080,6.81,71792.3,-25.87,-37.15,-35.29,0,*6B
1483632394.4,17081,6.88,71784.5,-25.87,-37.57,-35.53,0,*61
1483632395.66,17082,6.81,71786.5,-25.83,-37.39,-35.41,0,*6D
1483632396.91,17083,6.81,71786.8,-25.83,-37.39,-35.47,0,*6A
1483632398.18,17084,6.81,71792.3,-25.83,-37.21,-35.41,0,*62
1483632399.42,17085,6.81,71810.8,-25.83,-37.33,-35.41,0,*60
1483632400.69,17086,6.81,71808.8,-25.87,-37.63,-35.35,0,*61
1483632401.96,17087,6.81,71806.0,-25.83,-37.21,-34.95,0,*69
1483632403.18,17088,6.81,71828.0,-25.87,-36.97,-35.13,0,*61
1483632404.43,17089,6.81,71822.5,-25.87,-37.45,-35.41,0,*69
1483632405.64,17090,6.81,71788.5,-25.83,-37.75,-35.47,0,*60
1483632406.88,17091,6.81,71796.0,-25.83,-37.75,-35.65,0,*61
1483632408.14,17092,6.81,71762.5,-25.83,-37.69,-35.65,0,*6F
1483632409.36,17093,6.88,71778.5,-25.83,-37.57,-35.59,0,*6C
1483632410.6,17094,6.81,71786.8,-25.83,-37.75,-35.53,0,*61
1483632411.84,17095,6.81,71790.5,-25.87,-37.75,-35.41,0,*67
1483632413.09,17096,6.81,71784.8,-25.87,-37.63,-35.47,0,*65
1483632414.32,17097,6.81,71796.3,-25.83,-37.57,-35.23,0,*65
1483632415.59,17098,6.81,71798.0,-25.83,-36.37,-34.53,0,*6B
1483632416.82,17099,6.81,71776.5,-25.83,-36.43,-34.35,0,*69
1483632418.04,17100,6.81,71778.3,-25.87,-36.31,-34.41,0,*6A
1483632419.28,17101,6.81,71770.8,-25.87,-36.79,-34.59,0,*6E
1483632420.55,17102,6.81,71816.5,-25.87,-36.49,-34.01,0,*63
1483632421.8,17103,6.81,71780.0,-25.81,-34.71,-33.21,0,*68
1483632423.07,17104,6.81,71816.0,-25.83,-34.35,-32.85,0,*62
1483632424.28,17105,6.81,71790.0,-25.83,-33.03,-32.13,0,*6E
1483632425.53,17106,6.81,71762.5,-25.83,-35.01,-32.75,0,*69
1483632426.8,17107,6.81,71784.3,-25.83,-33.43,-33.09,0,*62
1483632428.02,17108,6.81,71788.0,-25.83,-33.67,-32.91,0,*6B
1483632429.25,17109,6.81,71784.8,-25.87,-35.29,-34.19,0,*64
1483632430.52,17110,6.81,71768.3,-25.83,-37.39,-35.41,0,*67
1483632431.8,17111,6.81,71746.8,-25.87,-37.81,-35.53,0,*62
1483632433.06,17112,6.81,71820.8,-25.83,-37.69,-35.23,0,*64
1483632434.33,17113,6.81,71732.8,-25.81,-36.91,-34.13,0,*63
1483632435.6,17114,6.81,71730.0,-25.83,-34.65,-33.09,0,*63
1483632436.81,17115,6.81,71744.8,-25.83,-33.83,-32.57,0,*67
1483632438.03,17116,6.81,71758.8,-25.83,-34.71,-33.21,0,*6E
1483632439.29,17117,6.81,71766.8,-25.87,-33.73,-32.39,0,*66
1483632440.53,17118,6.81,71760.0,-25.83,-34.01,-33.03,0,*67
1483632441.8,17119,6.81,71766.8,-25.83,-34.19,-32.85,0,*60
1483632443.02,17120,6.81,71750.0,-25.83,-33.83,-32.39,0,*69
1483632444.27,17121,6.81,71776.0,-25.83,-33.95,-33.43,0,*63
1483632445.48,17122,6.81,71760.0,-25.83,-36.55,-34.89,0,*68
1483632446.75,17123,6.81,71768.0,-25.83,-37.09,-34.95,0,*6C
1483632448.01,17124,6.81,71782.3,-25.83,-37.39,-35.23,0,*64
1483632449.26,17125,6.81,71788.3,-25.83,-37.21,-34.77,0,*6C
1483632450.52,17126,6.81,71784.0,-25.83,-37.39,-35.23,0,*66
1483632451.74,17127,6.81,71790.5,-25.83,-37.33,-35.13,0,*6E
1483632452.98,17128,6.81,71786.3,-25.83,-37.39,-35.13,0,*6B
1483632454.24,17129,6.81,71810.0,-25.83,-37.51,-35.23,0,*67
1483632455.48,17130,6.81,71800.3,-25.83,-37.57,-35.41,0,*6D
1483632456.72,17131,6.81,71794.8,-25.83,-37.57,-35.23,0,*68
1483632457.96,17132,6.81,71784.0,-25.83,-37.69,-35.29,0,*6C
1483632459.21,17133,6.81,71800.5,-25.83,-37.69,-35.29,0,*6D
1483632460.45,17134,6.81,71792.3,-25.83,-37.69,-35.29,0,*6A
1483632461.69,17135,6.81,71806.0,-25.83,-37.57,-35.23,0,*6C
1483632462.93,17136,6.81,71792.3,-25.83,-37.75,-35.41,0,*6B
1483632464.18,17137,6.81,71794.3,-25.83,-37.87,-35.41,0,*67
1483632465.41,17138,6.81,71798.5,-25.83,-37.57,-35.23,0,*61
1483632466.63,17139,6.81,71782.3,-25.83,-37.87,-35.47,0,*6F
1483632467.88,17140,6.81,71790.3,-25.83,-37.87,-35.41,0,*67
1483632469.12,17141,6.81,71796.8,-25.87,-37.75,-35.35,0,*6C
1483632470.34,17142,6.81,71788.8,-25.83,-37.75,-35.29,0,*66
1483632471.6,17143,6.81,71802.8,-25.87,-37.81,-35.29,0,*68
1483632472.81,17144,6.81,71800.5,-25.83,-37.33,-35.13,0,*6B
1483632474.08,17145,6.81,71774.0,-25.83,-36.91,-34.65,0,*63
1483632475.35,17146,6.81,71780.3,-25.83,-37.51,-35.23,0,*6E
1483632476.58,17147,6.81,71766.0,-25.83,-37.57,-35.23,0,*69
1483632477.83,17148,6.81,71788.0,-25.87,-37.63,-35.29,0,*6F
1483632479.09,17149,6.81,71782.3,-25.83,-37.51,-35.23,0,*61
1483632480.33,17150,6.81,71762.5,-25.83,-37.75,-35.23,0,*6F
1483632481.57,17151,6.81,71770.0,-25.83,-37.21,-34.89,0,*6E
1483632482.79,17152,6.81,71768.5,-25.83,-36.97,-35.13,0,*63
1483632484.06,17153,6.81,71778.5,-25.81,-37.51,-35.13,0,*6B
1483632485.3,17154,6.81,71756.5,-25.83,-37.33,-34.95,0,*65
1483632486.52,17155,6.81,71744.8,-25.83,-37.33,-34.77,0,*68
1483632487.78,17156,6.81,71754.0,-25.83,-36.25,-34.35,0,*6B
1483632489.04,17157,6.81,71750.0,-25.83,-36.79,-33.77,0,*62
1483632490.28,17158,6.81,71762.3,-25.83,-34.19,-32.91,0,*60
1483632491.53,17159,6.81,71798.0,-25.83,-34.35,-32.91,0,*6F
1483632492.77,17160,6.81,71760.5,-25.83,-36.01,-34.01,0,*6F
1483632494.02,17161,6.81,71726.5,-25.83,-34.31,-32.91,0,*60
1483632495.23,17162,6.81,71750.5,-25.87,-34.25,-33.67,0,*6A
1483632496.47,17163,6.81,71732.8,-25.83,-36.01,-34.19,0,*65
1483632497.71,17164,6.81,71748.3,-25.87,-36.43,-34.53,0,*6E
1483632498.93,17165,6.81,71734.3,-25.83,-36.97,-34.77,0,*64
1483632500.15,17166,6.81,71762.0,-25.87,-36.85,-34.71,0,*66
1483632501.4,17167,6.81,71736.0,-25.83,-37.15,-34.95,0,*61